Tracking 19562 objects as of 24-Mar-2019
HD Live streaming from Space Station
objects crossing your sky now

FLOCK 2K 44

Track FLOCK 2K 44 now!
10-day predictions
FLOCK 2K 44 is classified as:


NORAD ID: 42873
Int'l Code: 2017-042BA
Perigee: 449.7 km
Apogee: 465.4 km
Inclination: 97.0 °
Period: 93.6 minutes
Semi major axis: 6828 km
RCS: Unknown
Launch date: July 14, 2017
Source: United States (US)
Launch site: TYURATAM MISSILE AND SPACE COMPLEX (TTMTR)
aabbcc
Your satellite tracking list
Your tracking list is empty




NASA's NSSDC Master Catalog

Two Line Element Set (TLE):
1 42873U 17042BA  19082.90611380 +.00003873 +00000-0 +10361-3 0  9991
2 42873 096.9511 330.1990 0011545 155.9343 204.2446 15.38547506094625
Source of the keplerian elements: AFSPC